Regional Weather Roundup
Issued by NWS

Home | Current Version | Previous Version | Graphics & Text | Print | Product List | Glossary On
Versions: 1 2 3 4 5 6 7 8 9 10 11 12 13 14 15 16 17 18 19 20 21 22 23 24 25 26 27 28 29 30 31 32 33 34 35 36 37 38 39 40 41 42 43 44 45 46 47 48 49 50
000
ASUS44 KMEG 010510
RWRTN
TENNESSEE HOURLY STATE WEATHER ROUNDUP
NATIONAL WEATHER SERVICE MEMPHIS TN
1200 AM CDT SAT NOV 01 2014

TNZ002-004-019-021-049-052-054-088>092-010600-
WEST TENNESSEE

CITY           SKY/WX    TMP DP  RH WIND       PRES   REMARKS
MEMPHIS INTL   NOT AVBL
NWS MEMPHIS      N/A     39 N/A N/A MISG        N/A
JACKSON        NOT AVBL
HUNTINGDON     CLEAR     36  20  52 N8        30.26S WCI  30
$$

TNZ008-025-027-028-033-062-065-066-010600-
NORTH MIDDLE TENNESSEE

CITY           SKY/WX    TMP DP  RH WIND       PRES   REMARKS
NASHVILLE      CLOUDY    41  25  53 NW18G32   30.12F
DICKSON        MOCLDY    37  23  56 N18       30.18R WCI  27
PORTLAND       CLOUDY    37  27  65 NW24G30   30.09F WCI  26
CLARKSVILLE    CLOUDY    39  24  55 NW18G31   30.19S WCI  30
LEBANON        CLOUDY    39  25  58 NW22G33   30.08F WCI  28
LIVINGSTON     CLOUDY    32  30  92 NW12      30.01  WCI  23
GALLATIN       CLOUDY    39  27  62 NW18      30.10F WCI  29
CROSSVILLE     CLOUDY    33  29  85 NW10      29.98F WCI  25
ROCKWOOD       CLOUDY    32  30  92 N12       29.96F WCI  23
$$

TNZ061-075-076-078-094-096-097-010600-
SOUTH MIDDLE TENNESSEE

CITY           SKY/WX    TMP DP  RH WIND       PRES   REMARKS
$$

TNZ017-018-042-046-047-010600-
NORTHEAST TENNESSEE

CITY           SKY/WX    TMP DP  RH WIND       PRES   REMARKS
TRI CITIES     NOT AVBL
$$

TNZ012-013-036-069-073-074-010600-
CENTRAL EAST TENNESSEE

CITY           SKY/WX    TMP DP  RH WIND       PRES   REMARKS
KNOXVILLE      NOT AVBL
OAK RIDGE      CLOUDY    40  32  73 CALM      29.99F
$$

TNZ083-085-099-010600-
SOUTHEAST TENNESSEE

CITY           SKY/WX    TMP DP  RH WIND       PRES   REMARKS
CHATTANOOGA    CLOUDY    40  29  64 NW17G24   30.04F WCI  31
$$

SKY/WX REPORTED AS FAIR MEANS FEW OR NO CLOUDS BELOW
12 THOUSAND FEET.




USA.gov is the U.S. government's official web portal to all federal, state and local government web resources and services.